Time,TemperatureF,DewpointF,PressureIn,WindDirection,WindDirectionDegrees,WindSpeedMPH,WindSpeedGustMPH,Humidity,HourlyPrecipIn,Conditions,Clouds,dailyrainin,SoftwareType,DateUTC
2013-02-09 00:10:00,26.1,23.0,30.16,ESE,112,0.0,-999.0,88,-99.99,,,0.00,Acu-Link.com,2013-02-09 06:10:00,
2013-02-09 00:26:00,26.1,23.0,30.15,ESE,112,0.0,-999.0,88,-99.99,,,0.00,Acu-Link.com,2013-02-09 06:26:00,
2013-02-09 00:41:00,26.1,23.0,30.15,SE,135,0.0,-999.0,88,-99.99,,,0.00,Acu-Link.com,2013-02-09 06:41:00,
2013-02-09 00:57:00,26.1,23.0,30.15,SSE,157,0.0,-999.0,88,-99.99,,,0.00,Acu-Link.com,2013-02-09 06:57:00,
2013-02-09 01:12:00,26.1,23.0,30.15,South,180,0.0,-999.0,88,-99.99,,,0.00,Acu-Link.com,2013-02-09 07:12:00,
2013-02-09 01:27:00,26.1,23.0,30.15,East,90,0.0,-999.0,88,-99.99,,,0.00,Acu-Link.com,2013-02-09 07:27:00,
2013-02-09 01:43:00,26.2,23.1,30.15,ENE,67,4.7,-999.0,88,-99.99,,,0.00,Acu-Link.com,2013-02-09 07:43:00,
2013-02-09 01:58:00,26.2,23.1,30.14,ESE,112,0.0,-999.0,88,-99.99,,,0.00,Acu-Link.com,2013-02-09 07:58:00,
2013-02-09 02:13:00,26.2,23.1,30.14,ESE,112,0.0,-999.0,88,-99.99,,,0.00,Acu-Link.com,2013-02-09 08:13:00,
2013-02-09 02:28:00,26.2,23.1,30.15,ESE,112,0.0,-999.0,88,-99.99,,,0.00,Acu-Link.com,2013-02-09 08:28:00,
2013-02-09 02:43:00,26.2,23.1,30.14,East,90,0.0,-999.0,88,-99.99,,,0.00,Acu-Link.com,2013-02-09 08:43:00,
2013-02-09 02:59:00,26.4,23.3,30.14,South,180,0.0,-999.0,88,-99.99,,,0.00,Acu-Link.com,2013-02-09 08:59:00,
2013-02-09 03:14:00,26.4,23.3,30.13,NE,45,0.0,-999.0,88,-99.99,,,0.00,Acu-Link.com,2013-02-09 09:14:00,
2013-02-09 03:29:00,26.4,23.3,30.14,NE,45,0.0,-999.0,88,-99.99,,,0.00,Acu-Link.com,2013-02-09 09:29:00,
2013-02-09 03:45:00,26.4,23.3,30.14,ESE,112,0.0,-999.0,88,-99.99,,,0.00,Acu-Link.com,2013-02-09 09:45:00,
2013-02-09 04:00:00,26.4,23.3,30.14,ESE,112,0.0,-999.0,88,-99.99,,,0.00,Acu-Link.com,2013-02-09 10:00:00,
2013-02-09 04:15:00,26.4,23.3,30.13,ESE,112,0.0,-999.0,88,-99.99,,,0.00,Acu-Link.com,2013-02-09 10:15:00,
2013-02-09 04:30:00,26.4,23.3,30.13,ESE,112,0.0,-999.0,88,-99.99,,,0.00,Acu-Link.com,2013-02-09 10:30:00,
2013-02-09 04:46:00,26.6,23.3,30.13,ESE,112,0.0,-999.0,87,-99.99,,,0.00,Acu-Link.com,2013-02-09 10:46:00,
2013-02-09 05:01:00,26.6,23.3,30.12,ESE,112,3.7,-999.0,87,-99.99,,,0.00,Acu-Link.com,2013-02-09 11:01:00,
2013-02-09 05:16:00,26.8,23.5,30.14,ESE,112,0.0,-999.0,87,-99.99,,,0.00,Acu-Link.com,2013-02-09 11:16:00,
2013-02-09 05:31:00,27.0,23.7,30.13,ESE,112,0.0,-999.0,87,-99.99,,,0.00,Acu-Link.com,2013-02-09 11:31:00,
2013-02-09 05:47:00,27.0,23.7,30.13,ESE,112,0.0,-999.0,87,-99.99,,,0.00,Acu-Link.com,2013-02-09 11:47:00,
2013-02-09 06:02:00,27.0,23.7,30.12,ESE,112,0.0,-999.0,87,-99.99,,,0.00,Acu-Link.com,2013-02-09 12:02:00,
2013-02-09 06:17:00,27.0,23.4,30.12,ESE,112,2.2,-999.0,86,-99.99,,,0.00,Acu-Link.com,2013-02-09 12:17:00,
2013-02-09 06:33:00,27.0,23.4,30.12,ESE,112,0.0,-999.0,86,-99.99,,,0.00,Acu-Link.com,2013-02-09 12:33:00,
2013-02-09 06:48:00,27.1,23.5,30.12,South,180,0.0,-999.0,86,-99.99,,,0.00,Acu-Link.com,2013-02-09 12:48:00,
2013-02-09 07:03:00,27.1,23.5,30.12,ESE,112,3.7,-999.0,86,-99.99,,,0.00,Acu-Link.com,2013-02-09 13:03:00,
2013-02-09 07:18:00,27.3,23.7,30.13,ESE,112,0.0,-999.0,86,-99.99,,,0.00,Acu-Link.com,2013-02-09 13:18:00,
2013-02-09 07:33:00,27.5,23.9,30.13,ESE,112,0.0,-999.0,86,-99.99,,,0.00,Acu-Link.com,2013-02-09 13:33:00,
2013-02-09 07:49:00,27.7,23.8,30.13,ESE,112,0.0,-999.0,85,-99.99,,,0.00,Acu-Link.com,2013-02-09 13:49:00,
2013-02-09 08:04:00,28.0,23.8,30.13,ESE,112,2.2,-999.0,84,-99.99,,,0.00,Acu-Link.com,2013-02-09 14:04:00,
2013-02-09 08:19:00,28.2,24.0,30.12,ESE,112,4.2,-999.0,84,-99.99,,,0.00,Acu-Link.com,2013-02-09 14:19:00,
2013-02-09 08:34:00,28.6,24.1,30.12,SSW,202,4.2,-999.0,83,-99.99,,,0.00,Acu-Link.com,2013-02-09 14:34:00,
2013-02-09 08:50:00,28.9,24.4,30.11,SE,135,0.0,-999.0,83,-99.99,,,0.00,Acu-Link.com,2013-02-09 14:50:00,
2013-02-09 09:05:00,29.3,24.5,30.12,South,180,4.2,-999.0,82,-99.99,,,0.00,Acu-Link.com,2013-02-09 15:05:00,
2013-02-09 09:20:00,29.3,24.5,30.13,South,180,2.2,-999.0,82,-99.99,,,0.00,Acu-Link.com,2013-02-09 15:20:00,
2013-02-09 09:36:00,29.8,25.0,30.13,SW,225,4.2,-999.0,82,-99.99,,,0.00,Acu-Link.com,2013-02-09 15:36:00,
2013-02-09 09:51:00,30.6,25.5,30.11,SE,135,0.0,-999.0,81,-99.99,,,0.00,Acu-Link.com,2013-02-09 15:51:00,
2013-02-09 10:06:00,30.9,25.5,30.10,SE,135,2.7,-999.0,80,-99.99,,,0.00,Acu-Link.com,2013-02-09 16:06:00,
2013-02-09 10:21:00,31.3,25.9,30.10,ESE,112,0.0,-999.0,80,-99.99,,,0.00,Acu-Link.com,2013-02-09 16:21:00,
2013-02-09 10:37:00,31.1,25.7,30.10,SSE,157,0.0,-999.0,80,-99.99,,,0.00,Acu-Link.com,2013-02-09 16:37:00,
2013-02-09 10:52:00,31.6,25.8,30.10,South,180,2.7,-999.0,79,-99.99,,,0.00,Acu-Link.com,2013-02-09 16:52:00,
2013-02-09 11:07:00,32.4,26.3,30.09,SE,135,0.0,-999.0,78,-99.99,,,0.00,Acu-Link.com,2013-02-09 17:07:00,
2013-02-09 11:22:00,31.8,25.4,30.09,South,180,4.2,-999.0,77,-99.99,,,0.00,Acu-Link.com,2013-02-09 17:22:00,
2013-02-09 11:37:00,32.4,26.0,30.08,ESE,112,3.7,-999.0,77,-99.99,,,0.00,Acu-Link.com,2013-02-09 17:37:00,
2013-02-09 11:53:00,32.4,26.0,30.08,SE,135,4.2,-999.0,77,-99.99,,,0.00,Acu-Link.com,2013-02-09 17:53:00,
2013-02-09 12:08:00,33.3,26.2,30.07,South,180,4.2,-999.0,75,-99.99,,,0.00,Acu-Link.com,2013-02-09 18:08:00,
2013-02-09 12:23:00,33.6,26.5,30.05,SE,135,3.7,-999.0,75,-99.99,,,0.00,Acu-Link.com,2013-02-09 18:23:00,
2013-02-09 12:39:00,32.9,26.5,30.05,SSE,157,3.2,-999.0,77,-99.99,,,0.00,Acu-Link.com,2013-02-09 18:39:00,
2013-02-09 12:54:00,33.4,26.7,30.03,West,270,4.7,-999.0,76,-99.99,,,0.00,Acu-Link.com,2013-02-09 18:54:00,
2013-02-09 13:09:00,33.4,27.0,30.03,SSE,157,2.7,-999.0,77,-99.99,,,0.00,Acu-Link.com,2013-02-09 19:09:00,
2013-02-09 13:24:00,33.6,26.9,30.03,South,180,4.7,-999.0,76,-99.99,,,0.00,Acu-Link.com,2013-02-09 19:24:00,
2013-02-09 13:40:00,34.5,27.4,30.00,SSE,157,5.8,-999.0,75,-99.99,,,0.00,Acu-Link.com,2013-02-09 19:40:00,
2013-02-09 13:55:00,33.8,26.7,30.00,SSE,157,2.7,-999.0,75,-99.99,,,0.00,Acu-Link.com,2013-02-09 19:55:00,
2013-02-09 14:10:00,33.8,27.4,29.99,SE,135,4.7,-999.0,77,-99.99,,,0.00,Acu-Link.com,2013-02-09 20:10:00,
2013-02-09 14:25:00,34.0,27.6,29.98,ESE,112,3.7,-999.0,77,-99.99,,,0.00,Acu-Link.com,2013-02-09 20:25:00,
2013-02-09 14:41:00,36.5,28.7,29.97,SE,135,3.7,-999.0,73,-99.99,,,0.00,Acu-Link.com,2013-02-09 20:41:00,
2013-02-09 14:56:00,35.4,28.0,29.97,ESE,112,3.2,-999.0,74,-99.99,,,0.00,Acu-Link.com,2013-02-09 20:56:00,
2013-02-09 15:11:00,36.5,28.7,29.96,SSE,157,0.0,-999.0,73,-99.99,,,0.00,Acu-Link.com,2013-02-09 21:11:00,
2013-02-09 15:26:00,35.1,28.0,29.96,SE,135,3.2,-999.0,75,-99.99,,,0.00,Acu-Link.com,2013-02-09 21:26:00,
2013-02-09 15:42:00,34.9,28.1,29.94,SE,135,5.8,-999.0,76,-99.99,,,0.00,Acu-Link.com,2013-02-09 21:42:00,
2013-02-09 15:57:00,34.5,28.0,29.93,SSE,157,3.7,-999.0,77,-99.99,,,0.00,Acu-Link.com,2013-02-09 21:57:00,
2013-02-09 16:12:00,34.5,28.4,29.92,SE,135,4.2,-999.0,78,-99.99,,,0.00,Acu-Link.com,2013-02-09 22:12:00,
2013-02-09 16:27:00,35.4,28.9,29.92,SE,135,2.7,-999.0,77,-99.99,,,0.00,Acu-Link.com,2013-02-09 22:27:00,
2013-02-09 16:43:00,34.5,28.7,29.92,SE,135,0.0,-999.0,79,-99.99,,,0.00,Acu-Link.com,2013-02-09 22:43:00,
2013-02-09 16:58:00,34.0,28.8,29.92,SSE,157,0.0,-999.0,81,-99.99,,,0.00,Acu-Link.com,2013-02-09 22:58:00,
2013-02-09 17:13:00,33.4,28.5,29.91,SSE,157,0.0,-999.0,82,-99.99,,,0.00,Acu-Link.com,2013-02-09 23:13:00,
2013-02-09 17:29:00,33.1,28.5,29.91,SE,135,2.2,-999.0,83,-99.99,,,0.00,Acu-Link.com,2013-02-09 23:29:00,
2013-02-09 17:44:00,32.7,28.7,29.89,SE,135,0.0,-999.0,85,-99.99,,,0.00,Acu-Link.com,2013-02-09 23:44:00,
2013-02-09 17:59:00,32.4,28.7,29.88,SE,135,0.0,-999.0,86,-99.99,,,0.00,Acu-Link.com,2013-02-09 23:59:00,
2013-02-09 18:14:00,32.4,29.0,29.88,SE,135,4.2,-999.0,87,-99.99,,,0.00,Acu-Link.com,2013-02-10 00:14:00,
2013-02-09 18:29:00,32.7,29.3,29.88,SE,135,3.2,-999.0,87,-99.99,,,0.00,Acu-Link.com,2013-02-10 00:29:00,
2013-02-09 18:45:00,32.9,29.5,29.88,SE,135,0.0,-999.0,87,-99.99,,,0.00,Acu-Link.com,2013-02-10 00:45:00,
2013-02-09 19:00:00,33.4,30.0,29.88,SSE,157,1.1,-999.0,87,-99.99,,,0.00,Acu-Link.com,2013-02-10 01:00:00,
2013-02-09 19:15:00,33.6,30.2,29.87,SE,135,3.7,-999.0,87,-99.99,,,0.00,Acu-Link.com,2013-02-10 01:15:00,
2013-02-09 19:31:00,34.0,30.5,29.88,SE,135,5.8,-999.0,87,-99.99,,,0.00,Acu-Link.com,2013-02-10 01:31:00,
2013-02-09 19:46:00,34.5,30.5,29.87,SE,135,5.3,-999.0,85,-99.99,,,0.00,Acu-Link.com,2013-02-10 01:46:00,
2013-02-09 20:01:00,34.7,30.7,29.86,SSE,157,4.2,-999.0,85,-99.99,,,0.00,Acu-Link.com,2013-02-10 02:01:00,
2013-02-09 20:16:00,34.5,30.5,29.86,NW,315,2.7,-999.0,85,-99.99,,,0.00,Acu-Link.com,2013-02-10 02:16:00,
2013-02-09 20:32:00,34.5,30.5,29.86,SE,135,4.7,-999.0,85,-99.99,,,0.00,Acu-Link.com,2013-02-10 02:32:00,
2013-02-09 20:47:00,34.3,30.3,29.86,SE,135,3.2,-999.0,85,-99.99,,,0.00,Acu-Link.com,2013-02-10 02:47:00,
2013-02-09 21:02:00,34.2,30.2,29.85,SE,135,5.3,-999.0,85,-99.99,,,0.00,Acu-Link.com,2013-02-10 03:02:00,
2013-02-09 21:17:00,34.0,30.0,29.84,South,180,2.2,-999.0,85,-99.99,,,0.00,Acu-Link.com,2013-02-10 03:17:00,
2013-02-09 21:32:00,34.0,30.0,29.83,SSE,157,2.2,-999.0,85,-99.99,,,0.00,Acu-Link.com,2013-02-10 03:32:00,
2013-02-09 21:48:00,34.2,30.2,29.83,SSE,157,4.7,-999.0,85,-99.99,,,0.00,Acu-Link.com,2013-02-10 03:48:00,
2013-02-09 22:03:00,34.5,30.2,29.83,SSE,157,5.3,-999.0,84,-99.99,,,0.00,Acu-Link.com,2013-02-10 04:03:00,
2013-02-09 22:18:00,34.7,30.4,29.82,SSE,157,4.7,-999.0,84,-99.99,,,0.00,Acu-Link.com,2013-02-10 04:18:00,
2013-02-09 22:34:00,34.9,30.3,29.82,SSE,157,4.2,-999.0,83,-99.99,,,0.00,Acu-Link.com,2013-02-10 04:34:00,
2013-02-09 22:49:00,35.1,30.2,29.82,SSE,157,3.2,-999.0,82,-99.99,,,0.00,Acu-Link.com,2013-02-10 04:49:00,
2013-02-09 23:04:00,35.2,30.3,29.81,SSE,157,3.7,-999.0,82,-99.99,,,0.00,Acu-Link.com,2013-02-10 05:04:00,
2013-02-09 23:20:00,35.2,30.0,29.80,SSE,157,2.2,-999.0,81,-99.99,,,0.00,Acu-Link.com,2013-02-10 05:20:00,
2013-02-09 23:35:00,35.6,30.4,29.80,South,180,4.2,-999.0,81,-99.99,,,0.00,Acu-Link.com,2013-02-10 05:35:00,
2013-02-09 23:50:00,36.1,30.5,29.81,SSE,157,2.2,-999.0,80,-99.99,,,0.00,Acu-Link.com,2013-02-10 05:50:00,